Regional Weather Roundup
Issued by NWS Bismarck, ND

Home | Current Version | Previous Version | Text Only | Print | Product List | Glossary On
Versions: 1 2 3 4 5 6 7 8 9 10 11 12 13 14 15 16 17 18 19 20 21 22 23 24 25 26 27 28 29 30 31 32 33 34 35 36 37 38 39 40 41 42 43 44 45 46 47 48 49 50
000
ASUS43 KBIS 280120
RWRBIS

NWR BROADCAST TEXT
NATIONAL WEATHER SERVICE BISMARCK ND
800 PM CDT WED AUG 27 2014

NOTE: "FAIR" INDICATES FEW OR NO CLOUDS BELOW 12,000 FEET WITH NO
SIGNIFICANT WEATHER AND/OR OBSTRUCTIONS TO VISIBILITY.


CITY           SKY/WX    TMP DP  RH WIND       PRES   REMARKS
WILLISTON      CLEAR     80  53  39 SE8       29.95F
MINOT          CLEAR     73  56  54 S9        29.99F
MINOT AFB      CLEAR     72  59  63 S7        29.98F
BISMARCK       CLEAR     70  61  73 S8        30.04S
DICKINSON      PTCLDY    70  57  63 SE8       30.01F
GARRISON         N/A     71  59  65 S7        30.00F
HETTINGER ARPT CLOUDY    69  61  75 SE7       30.05F
JAMESTOWN      PTCLDY    68  61  78 SE6       30.05F
BEACH            N/A     70  57  64 SE8       30.01F
CARRINGTON     FAIR      64  64 100 SE8       30.05F
CROSBY         FAIR      73  57  56 S8        29.93F
HARVEY         FAIR      68  59  73 SE6       30.02F
HAZEN          FAIR      68  57  68 SE8       30.01F
LINTON         CLOUDY    66  63  88 E3        30.05S
MANDAN         FAIR      66  61  82 S9        30.05S
OAKES            N/A     68  64  88 E5        30.07S
RUGBY          FAIR      68  59  73 SE6       30.01F
STANLEY        FAIR      68  57  68 S8        29.99F
TIOGA          FAIR      72  57  60 S8        30.00F
WATFORD CITY   FAIR      75  54  46 SE8       29.95F
$$

CITY           SKY/WX    TMP DP  RH WIND       PRES   REMARKS
GRAND FORKS    CLEAR     70  59  68 SE6       30.06F
GRAND FORKS AF CLEAR     68  61  77 S7        30.07F
DEVILS LAKE    CLEAR     70  57  64 S8        30.03F
FARGO          CLEAR     69  59  70 SE6       30.07F
CANDO          FAIR      66  59  77 SE7       30.03F
CAVALIER       FAIR      68  55  64 SE6       30.04F
GRAFTON        FAIR      64  57  77 SE7       30.05F
GWINNER        PTCLDY    68  63  83 SE7       30.09R
LANGDON        FAIR      64  55  72 S6        30.05F
ROLLA          FAIR      64  57  77 S7        30.03F
WALHALLA         N/A     64  59  82 SE5       30.04F
$$

CITY           SKY/WX    TMP DP  RH WIND       PRES   REMARKS
ABERDEEN       MOCLDY    69  62  78 E6        30.05F
MOBRIDGE       MOCLDY    70  64  81 E6        30.00F
BUFFALO          N/A     68  61  78 SE8       29.99S
RAPID CITY     CLOUDY    67  62  84 SE10      30.06S
GLASGOW        CLEAR     82  52  35 W6        29.91S
SIDNEY         CLEAR     75  55  50 S9        29.95F
WOLF POINT     CLEAR     83  54  36 W7        29.90F
GLENDIVE       PTCLDY    75  55  50 S7        29.97F
MILES CITY     PTCLDY    83  51  33 S5        29.96F
BAKER          MOCLDY    76  57  51 E12G18    30.02F
$$

CITY           SKY/WX    TMP DP  RH WIND       PRES   REMARKS
BILLINGS       PTCLDY    84  42  22 N9        30.01S
GREAT FALLS    SUNNY     82  41  23 W6        30.01S
REGINA         CLEAR     77  64  65 S5        29.87S
ESTEVAN        PTCLDY    73  59  60 SE7       29.94F
$$



USA.gov is the U.S. government's official web portal to all federal, state and local government web resources and services.